Date,TemperatureHighF,TemperatureAvgF,TemperatureLowF,DewpointHighF,DewpointAvgF,DewpointLowF,HumidityHigh,HumidityAvg,HumidityLow,PressureMaxIn,PressureMinIn,WindSpeedMaxMPH,WindSpeedAvgMPH,GustSpeedMaxMPH,PrecipitationSumIn
2013-11-1,59.4,48.2,44.6,57.6,43.5,39.8,94,84,77,29.57,29.03,7,1,23,0.10
2013-11-2,45.9,43.0,34.2,42.5,39.7,30.7,93,88,80,30.02,29.56,4,1,15,0.17
2013-11-3,43.3,36.7,27.9,35.6,31.4,25.9,93,81,66,30.37,30.02,3,0,10,0.01
2013-11-4,47.9,40.2,33.2,35.4,32.0,29.7,88,73,50,30.38,30.22,7,2,17,0.00
2013-11-5,52.7,48.1,42.3,47.5,42.8,35.3,89,82,74,30.27,30.08,3,0,13,0.00
2013-11-6,54.9,50.7,41.1,51.4,46.0,38.1,92,84,70,30.08,29.70,13,3,27,0.12
2013-11-7,43.6,38.6,33.2,38.1,31.1,25.8,91,75,56,30.06,29.89,11,4,25,0.03
2013-11-8,43.2,34.5,27.9,30.8,27.9,24.3,91,78,54,30.21,30.04,6,1,13,0.01
2013-11-9,55.2,46.5,35.7,42.3,36.4,29.5,81,68,57,30.10,29.72,11,3,26,0.01
2013-11-10,46.1,40.3,28.3,39.1,30.7,24.7,88,69,57,30.18,29.81,12,4,28,0.00
2013-11-11,42.9,35.2,27.0,37.5,30.5,21.5,90,83,73,30.24,29.95,6,2,16,0.18
2013-11-12,32.8,26.6,19.7,22.8,18.8,14.5,85,73,56,30.47,30.24,8,2,18,0.02
2013-11-13,39.4,28.1,14.6,24.5,17.2,11.4,90,66,36,30.48,30.10,6,2,16,0.00
2013-11-14,50.6,38.4,28.0,28.5,23.2,18.2,72,55,39,30.11,29.91,9,3,18,0.00
2013-11-15,49.7,41.6,35.5,32.7,28.4,24.3,77,59,49,29.99,29.91,4,2,13,0.00
2013-11-16,55.9,45.4,31.3,51.5,40.8,27.9,91,84,73,30.01,29.71,7,2,22,0.01
2013-11-17,61.4,56.3,46.0,58.2,52.8,40.2,93,88,70,29.71,29.13,12,6,31,0.72
2013-11-18,46.0,39.2,33.5,40.2,30.9,23.8,80,72,67,30.05,29.39,13,7,30,0.00
2013-11-19,40.1,33.2,24.5,24.6,23.0,20.5,87,67,50,30.33,30.05,6,1,17,0.00
2013-11-20,43.4,33.0,21.1,31.9,25.2,18.4,91,75,50,30.36,30.16,9,2,20,0.00
2013-11-21,46.1,42.6,39.3,42.1,37.1,29.0,94,81,65,30.21,30.08,4,1,13,0.38
2013-11-22,44.1,38.2,25.9,42.5,34.9,22.3,94,88,75,30.28,30.04,8,2,19,0.03
2013-11-23,28.5,23.2,16.7,22.9,15.9,8.4,91,74,53,30.45,30.20,10,3,23,0.00
2013-11-24,24.2,18.0,12.6,14.0,10.2,7.3,83,72,54,30.54,30.36,8,2,18,0.00
2013-11-25,30.2,24.6,18.2,24.3,15.9,9.4,84,69,55,30.36,30.02,8,3,17,0.00
2013-11-26,33.8,30.4,27.8,27.7,25.8,22.8,92,83,77,30.04,29.86,4,1,14,0.00
2013-11-27,27.9,22.9,17.1,22.8,14.5,10.8,85,70,56,30.13,29.84,10,3,21,0.00
2013-11-28,27.1,21.5,14.6,20.6,15.2,9.6,86,76,64,30.35,30.13,4,1,11,0.00
2013-11-29,33.2,23.3,12.1,22.7,16.8,9.0,95,77,48,30.59,30.35,2,0,10,0.00
2013-11-30,44.0,33.0,26.7,29.6,24.7,20.3,81,72,56,30.48,30.02,4,2,15,0.00